Location: Grasslands National Park East Block
(49.0708°N, 106.5295°W)
Time: 01:26:23
(UTC-06:00)

Vanguard 1 Rocket - Pass Details

Date: 24 September 2019
Orbit: 650 x 4226 km, 34.3° (Epoch: 17 October)

Event Time Altitude Azimuth Distance (km) Brightness Sun altitude
Rises 23:28:18 0° 274° (W) 6,812 12.2 -38.0°
Reaches altitude 10° 23:35:11 10° 261° (W) 5,036 11.3 -38.5°
Enters shadow 23:41:30 18° 234° (SW) 3,636 10.3 -39.0°
Maximum altitude 23:43:07 19° 224° (SW) 3,397 - -39.1°
Drops below altitude 10° 23:48:40 10° 183° (S) 3,327 - -39.4°
Sets 23:51:57 0° 164° (SSE) 3,878 - -39.6°
